Location: Cucq
(50.4773°N, 1.6202°E)
Time: 04:30:10
(UTC+00:00)

In-Cosmos 22 - Pass Details

Date: 07 August 2020
Orbit: 784 x 877 km, 81.2° (Epoch: 19 September)

Event Time Altitude Azimuth Distance (km) Brightness Sun altitude
Rises 01:09:05 0° 346° (NNW) 3,448 8.3 -21.5°
Reaches altitude 10° 01:11:33 10° 346° (NNW) 2,495 7.4 -21.3°
Maximum altitude 01:17:13 83° 260° (W) 851 4.1 -21.0°
Enters shadow 01:19:17 40° 177° (S) 1,204 4.5 -20.9°
